Date String (YYYY-MM-DD hh:mm:ss) UTC,Instrument flags,absolute air pressure of the measurement (hPa),sample flow rate (lpm),inlet stack bypass flow (lpm),air temperature of the measurement (°C),ambient temperature measured by the external sensor (°C),aerosol sample conditioner tube jacket temperature (°C),OPC LED temperature (°C),internal box temperature (°C),relative humidity of the measurement (%),span deviation,mass concentration of particles derived from Lorenz-Mie calculation of OPC scattering (μg/m³),mass concentration of particles derived from Lorenz-Mie calculation of OPC scattering (μg/m³),mass concentration of particles derived from Lorenz-Mie calculation of OPC scattering (μg/m³)
DateTimeUTC,F1_M11,P_M11,Q1_M11,Q2_M11,T1_M11,T2_M11,T3_M11,T4_M11,T5_M11,U1_M11,ZSPAN_M11,X0_M11,X2_M11,X1_M11
2023-10-29 08:00:00,SystemResetWarning,0835.2,5.00,000.00,021.7,020.3,000.0,030.1,023.2,13.4,0000.0,0007.67,0005.73,0005.60
2023-10-29 08:01:00,SystemResetWarning,0835.2,5.00,000.00,021.7,020.3,000.0,030.1,023.1,13.5,0000.0,0007.65,0005.72,0005.60
2023-10-29 08:02:00,SystemResetWarning,0835.2,5.00,000.00,021.7,020.3,000.0,030.1,023.1,13.5,0000.0,0007.61,0005.71,0005.59
2023-10-29 08:03:00,SystemResetWarning,0835.2,5.00,000.00,021.7,020.4,000.0,030.0,023.3,13.5,0000.0,0007.59,0005.70,0005.59
2023-10-29 08:04:00,SystemResetWarning,0835.3,5.01,000.00,021.8,021.2,000.0,030.0,023.6,13.4,0000.0,0007.65,0005.72,0005.59
2023-10-29 08:05:00,SystemResetWarning,0835.2,4.99,000.00,021.9,021.9,000.0,030.0,023.9,13.3,0000.0,0007.72,0005.73,0005.59
2023-10-29 08:06:00,SystemResetWarning,0835.3,4.99,000.00,022.0,021.8,000.0,030.0,023.8,13.3,0000.0,0007.82,0005.74,0005.59
2023-10-29 08:07:00,SystemResetWarning,0835.3,5.01,000.00,022.0,021.6,000.0,030.1,023.7,13.3,0000.0,0007.86,0005.77,0005.60
2023-10-29 08:08:00,SystemResetWarning,0835.3,5.00,000.00,022.0,021.5,000.0,030.1,023.6,13.3,0000.0,0007.90,0005.77,0005.61
2023-10-29 08:09:00,SystemResetWarning,0835.3,5.00,000.00,021.9,021.3,000.0,030.2,023.5,13.3,0000.0,0007.94,0005.78,0005.61
2023-10-29 08:10:00,SystemResetWarning,0835.3,5.00,000.00,021.9,021.2,000.0,030.2,023.5,13.2,0000.0,0007.98,0005.79,0005.62
2023-10-29 08:11:00,SystemResetWarning,0835.3,5.00,000.00,021.9,021.0,000.0,030.2,023.4,13.2,0000.0,0008.00,0005.79,0005.61
2023-10-29 08:12:00,SystemResetWarning,0835.3,5.00,000.00,021.9,020.9,000.0,030.2,023.4,13.2,0000.0,0008.01,0005.79,0005.60
2023-10-29 08:13:00,SystemResetWarning,0835.3,5.00,000.00,021.9,020.8,000.0,030.2,023.4,13.2,0000.0,0007.99,0005.78,0005.61
2023-10-29 08:14:00,SystemResetWarning,0835.2,5.00,000.00,021.9,020.7,000.0,030.2,023.3,13.2,0000.0,0007.99,0005.78,0005.61
2023-10-29 08:15:00,SystemResetWarning,0835.2,5.00,000.00,021.9,020.7,000.0,030.2,023.3,13.2,0000.0,0007.92,0005.75,0005.60
2023-10-29 08:16:00,SystemResetWarning,0835.1,5.00,000.00,021.8,020.6,000.0,030.2,023.3,13.2,0000.0,0007.82,0005.73,0005.59
2023-10-29 08:17:00,SystemResetWarning,0835.2,5.00,000.00,021.8,020.5,000.0,030.2,023.3,13.2,0000.0,0007.71,0005.71,0005.58
2023-10-29 08:18:00,SystemResetWarning,0835.1,5.00,000.00,021.8,020.5,000.0,030.2,023.3,13.2,0000.0,0007.73,0005.71,0005.57
2023-10-29 08:19:00,SystemResetWarning,0835.1,5.00,000.00,021.8,020.4,000.0,030.2,023.2,13.2,0000.0,0007.69,0005.70,0005.56
2023-10-29 08:20:00,SystemResetWarning,0835.1,5.00,000.00,021.8,020.4,000.0,030.2,023.2,13.2,0000.0,0007.63,0005.69,0005.56
2023-10-29 08:21:00,SystemResetWarning,0835.1,5.00,000.00,021.7,020.3,000.0,030.2,023.2,13.2,0000.0,0007.55,0005.65,0005.54
2023-10-29 08:22:00,SystemResetWarning,0835.1,5.01,000.00,021.7,020.3,000.0,030.2,023.2,13.2,0000.0,0007.50,0005.63,0005.54
2023-10-29 08:23:00,SystemResetWarning,0835.1,5.00,000.00,021.7,020.3,000.0,030.2,023.2,13.2,0000.0,0007.51,0005.64,0005.54
2023-10-29 08:24:00,SystemResetWarning,0835.1,4.99,000.00,021.7,020.3,000.0,030.1,023.2,13.2,0000.0,0007.55,0005.66,0005.55
2023-10-29 08:25:00,SystemResetWarning,0835.2,5.01,000.00,021.8,020.9,000.0,030.1,023.5,13.2,0000.0,0007.54,0005.65,0005.53
2023-10-29 08:26:00,SystemResetWarning,0835.2,4.99,000.00,021.9,021.7,000.0,030.0,023.9,13.1,0000.0,0007.56,0005.66,0005.53
2023-10-29 08:27:00,SystemResetWarning,0835.3,4.98,000.00,022.0,021.8,000.0,030.1,023.8,13.1,0000.0,0007.62,0005.67,0005.53
2023-10-29 08:28:00,SystemResetWarning,0835.3,5.00,000.00,022.0,021.7,000.0,030.2,023.7,13.1,0000.0,0007.63,0005.68,0005.54
2023-10-29 08:29:00,SystemResetWarning,0835.2,5.01,000.00,022.0,021.5,000.0,030.2,023.6,13.1,0000.0,0007.62,0005.68,0005.54
2023-10-29 08:30:00,SystemResetWarning,0835.2,5.01,000.00,022.0,021.4,000.0,030.2,023.6,13.1,0000.0,0007.63,0005.68,0005.55
2023-10-29 08:31:00,SystemResetWarning,0835.2,4.99,000.00,022.0,021.2,000.0,030.2,023.5,13.1,0000.0,0007.66,0005.69,0005.55
2023-10-29 08:32:00,SystemResetWarning,0835.3,5.00,000.00,022.0,021.1,000.0,030.2,023.5,13.1,0000.0,0007.68,0005.70,0005.55
2023-10-29 08:33:00,SystemResetWarning,0835.3,4.99,000.00,021.9,021.0,000.0,030.3,023.4,13.1,0000.0,0007.67,0005.70,0005.55
2023-10-29 08:34:00,SystemResetWarning,0835.2,5.00,000.00,021.9,020.9,000.0,030.3,023.4,13.2,0000.0,0007.67,0005.68,0005.53
2023-10-29 08:35:00,SystemResetWarning,0835.1,5.00,000.00,021.9,020.8,000.0,030.3,023.4,13.2,0000.0,0007.65,0005.67,0005.52
2023-10-29 08:36:00,SystemResetWarning,0835.2,5.00,000.00,021.9,020.7,000.0,030.3,023.3,13.2,0000.0,0007.67,0005.66,0005.51
2023-10-29 08:37:00,SystemResetWarning,0835.2,5.00,000.00,021.9,020.6,000.0,030.3,023.3,13.2,0000.0,0007.98,0005.66,0005.51
2023-10-29 08:38:00,SystemResetWarning,0835.2,5.00,000.00,021.8,020.5,000.0,030.3,023.3,13.2,0000.0,0007.92,0005.63,0005.49
2023-10-29 08:39:00,SystemResetWarning,0835.2,5.01,000.00,021.8,020.5,000.0,030.2,023.3,13.2,0000.0,0007.92,0005.62,0005.47
2023-10-29 08:40:00,SystemResetWarning,0835.3,5.01,000.00,021.8,020.4,000.0,030.2,023.2,13.2,0000.0,0007.87,0005.59,0005.45
2023-10-29 08:41:00,SystemResetWarning,0835.3,5.00,000.00,021.8,020.4,000.0,030.2,023.2,13.2,0000.0,0007.84,0005.58,0005.44
2023-10-29 08:42:00,SystemResetWarning,0835.3,4.99,000.00,021.7,020.3,000.0,030.2,023.2,13.2,0000.0,0007.83,0005.56,0005.42
2023-10-29 08:43:00,SystemResetWarning,0835.2,5.00,000.00,021.7,020.3,000.0,030.2,023.2,13.2,0000.0,0007.84,0005.55,0005.41
2023-10-29 08:44:00,SystemResetWarning,0835.2,5.00,000.00,021.8,020.4,000.0,030.2,023.3,13.2,0000.0,0007.88,0005.55,0005.41
2023-10-29 08:45:00,SystemResetWarning,0835.3,5.01,000.00,021.9,021.2,000.0,030.1,023.7,13.2,0000.0,0007.87,0005.55,0005.41
2023-10-29 08:46:00,SystemResetWarning,0835.3,4.99,000.00,022.0,021.9,000.0,030.1,023.9,13.1,0000.0,0007.91,0005.56,0005.41
2023-10-29 08:47:00,SystemResetWarning,0835.2,4.99,000.00,022.0,021.9,000.0,030.2,023.8,13.1,0000.0,0007.92,0005.56,0005.41
2023-10-29 08:48:00,SystemResetWarning,0835.3,5.00,000.00,022.0,021.7,000.0,030.2,023.7,13.0,0000.0,0007.62,0005.54,0005.41
2023-10-29 08:49:00,SystemResetWarning,0835.2,5.00,000.00,022.0,021.5,000.0,030.2,023.7,13.0,-000.5,0007.59,0005.55,0005.41
2023-10-29 08:50:00,SystemResetWarning,0835.1,5.00,000.00,022.0,021.4,000.0,030.3,023.6,13.1,-000.4,0007.60,0005.56,0005.42
2023-10-29 08:51:00,SystemResetWarning,0835.2,5.00,000.00,022.0,021.2,000.0,030.3,023.5,13.1,0000.0,0007.61,0005.55,0005.41
2023-10-29 08:52:00,SystemResetWarning,0835.2,5.00,000.00,022.0,021.1,000.0,030.3,023.5,13.1,0000.0,0007.62,0005.55,0005.41
2023-10-29 08:53:00,SystemResetWarning,0835.2,5.00,000.00,022.0,020.9,000.0,030.3,023.4,13.1,0000.0,0007.61,0005.55,0005.41
2023-10-29 08:54:00,SystemResetWarning,0835.3,5.00,000.00,021.9,020.9,000.0,030.3,023.4,13.1,0000.0,0007.58,0005.55,0005.40
2023-10-29 08:55:00,SystemResetWarning,0835.3,5.00,000.00,021.9,020.8,000.0,030.3,023.4,13.1,0000.0,0007.51,0005.54,0005.40
2023-10-29 08:56:00,SystemResetWarning,0835.2,5.00,000.00,021.9,020.7,000.0,030.3,023.3,13.1,0000.0,0007.52,0005.54,0005.40
2023-10-29 08:57:00,SystemResetWarning,0835.2,5.00,000.00,021.9,020.6,000.0,030.3,023.3,13.1,0000.0,0007.46,0005.52,0005.39
2023-10-29 08:58:00,SystemResetWarning,0835.2,5.00,000.00,021.9,020.5,000.0,030.3,023.3,13.1,0000.0,0007.47,0005.51,0005.39
2023-10-29 08:59:00,SystemResetWarning,0835.3,5.00,000.00,021.8,020.5,000.0,030.3,023.3,13.2,0000.0,0007.44,0005.51,0005.38
